Regional Weather Roundup
Issued by NWS New Orleans/Baton Rouge, LA

Home | Current Version | Previous Version | Graphics & Text | Print | Product List | Glossary On
Versions: 1 2 3 4 5 6 7 8 9 10 11 12 13 14 15 16 17 18 19 20 21 22 23 24 25 26 27 28 29 30 31 32 33 34 35 36 37 38 39 40 41 42 43 44 45 46 47 48 49 50
121
ASUS44 KLIX 282310
RWRLIX
NEW ORLEANS REGIONAL WEATHER ROUNDUP
NATIONAL WEATHER SERVICE NEW ORLEANS LA
500 PM CST FRI NOV 28 2014

NOTE: "FAIR" INDICATES FEW OR NO CLOUDS BELOW 12,000 FEET WITH NO
      SIGNIFICANT WEATHER AND/OR OBSTRUCTIONS TO VISIBILITY.
      SKY/WX - SKY CONDITION AND SIGNIFICANT WEATHER.
      TMP - AIR TEMPERATURE.     DP    - DEWPOINT TEMPERATURE.
      RH  - RELATIVE HUMIDITY.   PRES  - PRESSURE.
      HI  - HEAT INDEX.          WCI   - WIND CHILL INDEX.

*  THESE STATIONS ARE NOT NWS OR FAA STATIONS AND ARE NOT UNDER
   NWS QUALITY CONTROL.

LAZ038-040-048-061>063-065>067-069-290000-
SOUTHEAST LOUISIANA

CITY           SKY/WX    TMP DP  RH WIND       PRES   REMARKS
N.O. AUDUBON   NOT AVBL
N.O. INTL ARPT PTCLDY    56  42  59 E6        30.30R
N.O. LAKEFRONT CLEAR     54  42  64 SE8       30.31S
N.O. DOWNTOWN*   N/A     55  39  54 S8        30.31S
SLIDELL        CLEAR     52  39  61 S5        30.30S
BATON ROUGE    CLEAR     57  32  38 SE5       30.27S
BOOTHVILLE     CLEAR     56  49  77 E5        30.31S
BELLE CHASSE   PTCLDY    54  42  64 SE6       30.30S
BOGALUSA*        N/A     56  29  35 SW3       30.30S
NEW ROADS*       N/A     58  34  40 SE6       30.26F
GONZALES*        N/A     58  42  55 NE3       30.28S
HAMMOND*       CLEAR     54  32  43 SE5       30.31S
HOUMA*         CLEAR     55  45  67 SE7       30.29F
PORT FOURCHON* CLEAR     59  50  72 E6        30.33S

$$

MSZ070-080>082-290000-
SOUTHERN MISSISSIPPI

CITY           SKY/WX    TMP DP  RH WIND       PRES   REMARKS
MCCOMB         CLEAR     54  29  38 S7        30.27S
GULFPORT       CLEAR     51  36  56 S3        30.30S
BILOXI         CLEAR     52  33  47 S5        30.31R
PASCAGOULA     CLEAR     49  34  56 S3        30.31R

$$

COASTAL OBSERVATIONS
LAKE AND NEARSHORE STATIONS

STATION/POSITION TIME  TEMP    WIND        PRES    WAVE
                       AIR SEA DIR/SP/G            HT/PER
                 (UTC) (F)     (DEG/KT/KT) (MB)    (FT/S)
PASCAGOULA       2300   54     140/  5/  8 1025.8
WAVELAND YACHT   2300   51     190/  4/  6 1025.4
GRAND ISLE       2300   57 59   70/  6/  9 1026.4
SOUTHWEST PASS   2300   64                 1026.1
NEW CANAL        2300   55 54   70/  1/  4 1026.3
SHELL BEACH      2300   54 53  110/  7/  8 1026.1

OFFSHORE STATIONS

STATION/POSITION TIME  TEMP    WIND        PRES    WAVE
                       AIR SEA DIR/SP/G            HT/PER
                 (UTC) (F)     (DEG/KT/KT) (MB)    (FT/S)
64 S DAUPHIN ISL 2239   58 71   90/  8/ 12 1026.9    3/ 5

$$




USA.gov is the U.S. government's official web portal to all federal, state and local government web resources and services.